owner,sensor,date,latitude,longitude,relative_humidity,qcFlag 
WAVCIS,ioos:station:WAVCIS:CSI06:1,2009-05-01T00:00:00Z,28.8667,-90.4833,81.6,11111222 
WAVCIS,ioos:station:WAVCIS:CSI06:1,2009-05-01T01:00:00Z,28.8667,-90.4833,82.1,11111222 
WAVCIS,ioos:station:WAVCIS:CSI06:1,2009-05-01T02:00:00Z,28.8667,-90.4833,81.9,11111222 
WAVCIS,ioos:station:WAVCIS:CSI06:1,2009-05-01T03:00:00Z,28.8667,-90.4833,83.0,11111222 
WAVCIS,ioos:station:WAVCIS:CSI06:1,2009-05-01T04:00:00Z,28.8667,-90.4833,82.3,11111222 
WAVCIS,ioos:station:WAVCIS:CSI06:1,2009-05-01T05:00:00Z,28.8667,-90.4833,82.2,11111222 
WAVCIS,ioos:station:WAVCIS:CSI06:1,2009-05-01T06:00:00Z,28.8667,-90.4833,81.7,11111222 
WAVCIS,ioos:station:WAVCIS:CSI06:1,2009-05-01T07:00:00Z,28.8667,-90.4833,81.9,11111222 
WAVCIS,ioos:station:WAVCIS:CSI06:1,2009-05-01T08:00:00Z,28.8667,-90.4833,81.8,11111222 
WAVCIS,ioos:station:WAVCIS:CSI06:1,2009-05-01T09:00:00Z,28.8667,-90.4833,82.2,11111222 
WAVCIS,ioos:station:WAVCIS:CSI06:1,2009-05-01T10:00:00Z,28.8667,-90.4833,81.7,11111222 
WAVCIS,ioos:station:WAVCIS:CSI06:1,2009-05-01T11:00:00Z,28.8667,-90.4833,83.3,11111222 
WAVCIS,ioos:station:WAVCIS:CSI06:1,2009-05-01T12:00:00Z,28.8667,-90.4833,82.2,11111222 
WAVCIS,ioos:station:WAVCIS:CSI06:1,2009-05-01T13:00:00Z,28.8667,-90.4833,82.4,11111222 
WAVCIS,ioos:station:WAVCIS:CSI06:1,2009-05-01T14:00:00Z,28.8667,-90.4833,82.0,11111222 
WAVCIS,ioos:station:WAVCIS:CSI06:1,2009-05-01T15:00:00Z,28.8667,-90.4833,82.5,11111222 
WAVCIS,ioos:station:WAVCIS:CSI06:1,2009-05-01T16:00:00Z,28.8667,-90.4833,82.2,11111222 
WAVCIS,ioos:station:WAVCIS:CSI06:1,2009-05-01T17:00:00Z,28.8667,-90.4833,81.7,11111222 
WAVCIS,ioos:station:WAVCIS:CSI06:1,2009-05-01T18:00:00Z,28.8667,-90.4833,81.1,11111222 
WAVCIS,ioos:station:WAVCIS:CSI06:1,2009-05-01T19:00:00Z,28.8667,-90.4833,79.8,11111222 
WAVCIS,ioos:station:WAVCIS:CSI06:1,2009-05-01T20:00:00Z,28.8667,-90.4833,78.5,11111222 
WAVCIS,ioos:station:WAVCIS:CSI06:1,2009-05-01T21:00:00Z,28.8667,-90.4833,79.3,11111222 
WAVCIS,ioos:station:WAVCIS:CSI06:1,2009-05-01T22:00:00Z,28.8667,-90.4833,76.6,11111222 
WAVCIS,ioos:station:WAVCIS:CSI06:1,2009-05-01T23:00:00Z,28.8667,-90.4833,77.5,11111222 
WAVCIS,ioos:station:WAVCIS:CSI06:1,2009-05-02T00:00:00Z,28.8667,-90.4833,78.4,11111222 
WAVCIS,ioos:station:WAVCIS:CSI06:1,2009-05-02T01:00:00Z,28.8667,-90.4833,79.5,11111222 
WAVCIS,ioos:station:WAVCIS:CSI06:1,2009-05-02T02:00:00Z,28.8667,-90.4833,81.4,11111222 
WAVCIS,ioos:station:WAVCIS:CSI06:1,2009-05-02T03:00:00Z,28.8667,-90.4833,79.9,11111222 
WAVCIS,ioos:station:WAVCIS:CSI06:1,2009-05-02T04:00:00Z,28.8667,-90.4833,81.3,11111222 
WAVCIS,ioos:station:WAVCIS:CSI06:1,2009-05-02T05:00:00Z,28.8667,-90.4833,80.1,11111222 
WAVCIS,ioos:station:WAVCIS:CSI06:1,2009-05-02T06:00:00Z,28.8667,-90.4833,80.0,11111222 
WAVCIS,ioos:station:WAVCIS:CSI06:1,2009-05-02T07:00:00Z,28.8667,-90.4833,80.2,11111222 
WAVCIS,ioos:station:WAVCIS:CSI06:1,2009-05-02T08:00:00Z,28.8667,-90.4833,81.2,11111222 
WAVCIS,ioos:station:WAVCIS:CSI06:1,2009-05-02T09:00:00Z,28.8667,-90.4833,82.6,11111222 
WAVCIS,ioos:station:WAVCIS:CSI06:1,2009-05-02T10:00:00Z,28.8667,-90.4833,84.0,11111222 
WAVCIS,ioos:station:WAVCIS:CSI06:1,2009-05-02T11:00:00Z,28.8667,-90.4833,83.8,11111222 
WAVCIS,ioos:station:WAVCIS:CSI06:1,2009-05-02T12:00:00Z,28.8667,-90.4833,84.3,11111222 
WAVCIS,ioos:station:WAVCIS:CSI06:1,2009-05-02T13:00:00Z,28.8667,-90.4833,83.1,11111222 
WAVCIS,ioos:station:WAVCIS:CSI06:1,2009-05-02T14:00:00Z,28.8667,-90.4833,83.2,11111222 
WAVCIS,ioos:station:WAVCIS:CSI06:1,2009-05-02T15:00:00Z,28.8667,-90.4833,82.8,11111222 
WAVCIS,ioos:station:WAVCIS:CSI06:1,2009-05-02T16:00:00Z,28.8667,-90.4833,82.0,11111222 
WAVCIS,ioos:station:WAVCIS:CSI06:1,2009-05-02T17:00:00Z,28.8667,-90.4833,83.0,11111222 
WAVCIS,ioos:station:WAVCIS:CSI06:1,2009-05-02T18:00:00Z,28.8667,-90.4833,80.5,11111222 
WAVCIS,ioos:station:WAVCIS:CSI06:1,2009-05-02T19:00:00Z,28.8667,-90.4833,79.5,11111222 
WAVCIS,ioos:station:WAVCIS:CSI06:1,2009-05-02T20:00:00Z,28.8667,-90.4833,78.6,11111222 
WAVCIS,ioos:station:WAVCIS:CSI06:1,2009-05-02T21:00:00Z,28.8667,-90.4833,79.1,11111222 
WAVCIS,ioos:station:WAVCIS:CSI06:1,2009-05-02T22:00:00Z,28.8667,-90.4833,79.8,11111222 
WAVCIS,ioos:station:WAVCIS:CSI06:1,2009-05-02T23:00:00Z,28.8667,-90.4833,79.7,11111222 
WAVCIS,ioos:station:WAVCIS:CSI06:1,2009-05-03T00:00:00Z,28.8667,-90.4833,79.7,11111222 
WAVCIS,ioos:station:WAVCIS:CSI06:1,2009-05-03T01:00:00Z,28.8667,-90.4833,79.7,11111222 
WAVCIS,ioos:station:WAVCIS:CSI06:1,2009-05-03T02:00:00Z,28.8667,-90.4833,80.4,11111222 
WAVCIS,ioos:station:WAVCIS:CSI06:1,2009-05-03T03:00:00Z,28.8667,-90.4833,80.4,11111222 
WAVCIS,ioos:station:WAVCIS:CSI06:1,2009-05-03T04:00:00Z,28.8667,-90.4833,80.9,11111222 
WAVCIS,ioos:station:WAVCIS:CSI06:1,2009-05-03T05:00:00Z,28.8667,-90.4833,81.1,11111222 
WAVCIS,ioos:station:WAVCIS:CSI06:1,2009-05-03T06:00:00Z,28.8667,-90.4833,81.7,11111222 
WAVCIS,ioos:station:WAVCIS:CSI06:1,2009-05-03T07:00:00Z,28.8667,-90.4833,82.0,11111222 
WAVCIS,ioos:station:WAVCIS:CSI06:1,2009-05-03T08:00:00Z,28.8667,-90.4833,81.4,11111222 
WAVCIS,ioos:station:WAVCIS:CSI06:1,2009-05-03T09:00:00Z,28.8667,-90.4833,81.0,11111222 
WAVCIS,ioos:station:WAVCIS:CSI06:1,2009-05-03T10:00:00Z,28.8667,-90.4833,81.0,11111222 
WAVCIS,ioos:station:WAVCIS:CSI06:1,2009-05-03T11:00:00Z,28.8667,-90.4833,81.8,11111222 
WAVCIS,ioos:station:WAVCIS:CSI06:1,2009-05-03T12:00:00Z,28.8667,-90.4833,82.1,11111222 
WAVCIS,ioos:station:WAVCIS:CSI06:1,2009-05-03T13:00:00Z,28.8667,-90.4833,81.2,11111222 
WAVCIS,ioos:station:WAVCIS:CSI06:1,2009-05-03T14:00:00Z,28.8667,-90.4833,80.5,11111222 
WAVCIS,ioos:station:WAVCIS:CSI06:1,2009-05-03T15:00:00Z,28.8667,-90.4833,79.1,11111222 
WAVCIS,ioos:station:WAVCIS:CSI06:1,2009-05-03T16:00:00Z,28.8667,-90.4833,78.0,11111222 
WAVCIS,ioos:station:WAVCIS:CSI06:1,2009-05-03T17:00:00Z,28.8667,-90.4833,78.4,11111222 
WAVCIS,ioos:station:WAVCIS:CSI06:1,2009-05-03T18:00:00Z,28.8667,-90.4833,77.7,11111222 
WAVCIS,ioos:station:WAVCIS:CSI06:1,2009-05-03T19:00:00Z,28.8667,-90.4833,78.2,11111222 
WAVCIS,ioos:station:WAVCIS:CSI06:1,2009-05-03T20:00:00Z,28.8667,-90.4833,79.2,11111222 
WAVCIS,ioos:station:WAVCIS:CSI06:1,2009-05-03T21:00:00Z,28.8667,-90.4833,80.1,11111222 
WAVCIS,ioos:station:WAVCIS:CSI06:1,2009-05-03T22:00:00Z,28.8667,-90.4833,80.7,11111222 
WAVCIS,ioos:station:WAVCIS:CSI06:1,2009-05-03T23:00:00Z,28.8667,-90.4833,81.9,11111222 
WAVCIS,ioos:station:WAVCIS:CSI06:1,2009-05-04T00:00:00Z,28.8667,-90.4833,82.7,11111222 
WAVCIS,ioos:station:WAVCIS:CSI06:1,2009-05-04T01:00:00Z,28.8667,-90.4833,83.8,11111222 
WAVCIS,ioos:station:WAVCIS:CSI06:1,2009-05-04T02:00:00Z,28.8667,-90.4833,83.9,11111222 
WAVCIS,ioos:station:WAVCIS:CSI06:1,2009-05-04T03:00:00Z,28.8667,-90.4833,84.5,11111222 
WAVCIS,ioos:station:WAVCIS:CSI06:1,2009-05-04T04:00:00Z,28.8667,-90.4833,84.6,11111222 
WAVCIS,ioos:station:WAVCIS:CSI06:1,2009-05-04T05:00:00Z,28.8667,-90.4833,84.2,11111222 
WAVCIS,ioos:station:WAVCIS:CSI06:1,2009-05-04T06:00:00Z,28.8667,-90.4833,84.3,11111222 
WAVCIS,ioos:station:WAVCIS:CSI06:1,2009-05-04T07:00:00Z,28.8667,-90.4833,83.7,11111222 
WAVCIS,ioos:station:WAVCIS:CSI06:1,2009-05-04T08:00:00Z,28.8667,-90.4833,83.3,11111222 
WAVCIS,ioos:station:WAVCIS:CSI06:1,2009-05-04T09:00:00Z,28.8667,-90.4833,83.0,11111222 
WAVCIS,ioos:station:WAVCIS:CSI06:1,2009-05-04T10:00:00Z,28.8667,-90.4833,82.5,11111222 
WAVCIS,ioos:station:WAVCIS:CSI06:1,2009-05-04T11:00:00Z,28.8667,-90.4833,80.6,11111222 
WAVCIS,ioos:station:WAVCIS:CSI06:1,2009-05-04T12:00:00Z,28.8667,-90.4833,81.9,11111222 
WAVCIS,ioos:station:WAVCIS:CSI06:1,2009-05-04T13:00:00Z,28.8667,-90.4833,82.0,11111222 
WAVCIS,ioos:station:WAVCIS:CSI06:1,2009-05-04T14:00:00Z,28.8667,-90.4833,81.7,11111222 
WAVCIS,ioos:station:WAVCIS:CSI06:1,2009-05-04T15:00:00Z,28.8667,-90.4833,81.8,11111222 
WAVCIS,ioos:station:WAVCIS:CSI06:1,2009-05-04T16:00:00Z,28.8667,-90.4833,81.4,11111222 
WAVCIS,ioos:station:WAVCIS:CSI06:1,2009-05-04T17:00:00Z,28.8667,-90.4833,81.4,11111222 
WAVCIS,ioos:station:WAVCIS:CSI06:1,2009-05-04T18:00:00Z,28.8667,-90.4833,81.3,11111222 
WAVCIS,ioos:station:WAVCIS:CSI06:1,2009-05-04T19:00:00Z,28.8667,-90.4833,81.0,11111222 
WAVCIS,ioos:station:WAVCIS:CSI06:1,2009-05-04T20:00:00Z,28.8667,-90.4833,75.0,11111222 
WAVCIS,ioos:station:WAVCIS:CSI06:1,2009-05-04T21:00:00Z,28.8667,-90.4833,75.3,11111222 
WAVCIS,ioos:station:WAVCIS:CSI06:1,2009-05-04T22:00:00Z,28.8667,-90.4833,78.4,11111222 
WAVCIS,ioos:station:WAVCIS:CSI06:1,2009-05-04T23:00:00Z,28.8667,-90.4833,80.6,11111222 
WAVCIS,ioos:station:WAVCIS:CSI06:1,2009-05-05T00:00:00Z,28.8667,-90.4833,81.6,11111222 
WAVCIS,ioos:station:WAVCIS:CSI06:1,2009-05-05T01:00:00Z,28.8667,-90.4833,81.9,11111222 
WAVCIS,ioos:station:WAVCIS:CSI06:1,2009-05-05T02:00:00Z,28.8667,-90.4833,82.9,11111222 
WAVCIS,ioos:station:WAVCIS:CSI06:1,2009-05-05T03:00:00Z,28.8667,-90.4833,84.1,11111222 
WAVCIS,ioos:station:WAVCIS:CSI06:1,2009-05-05T04:00:00Z,28.8667,-90.4833,84.7,11111222 
WAVCIS,ioos:station:WAVCIS:CSI06:1,2009-05-05T05:00:00Z,28.8667,-90.4833,84.9,11111222 
WAVCIS,ioos:station:WAVCIS:CSI06:1,2009-05-05T06:00:00Z,28.8667,-90.4833,84.9,11111222 
WAVCIS,ioos:station:WAVCIS:CSI06:1,2009-05-05T07:00:00Z,28.8667,-90.4833,84.9,11111222 
WAVCIS,ioos:station:WAVCIS:CSI06:1,2009-05-05T08:00:00Z,28.8667,-90.4833,84.6,11111222 
WAVCIS,ioos:station:WAVCIS:CSI06:1,2009-05-05T09:00:00Z,28.8667,-90.4833,84.8,11111222 
WAVCIS,ioos:station:WAVCIS:CSI06:1,2009-05-05T10:00:00Z,28.8667,-90.4833,84.9,11111222 
WAVCIS,ioos:station:WAVCIS:CSI06:1,2009-05-05T11:00:00Z,28.8667,-90.4833,84.8,11111222 
WAVCIS,ioos:station:WAVCIS:CSI06:1,2009-05-05T12:00:00Z,28.8667,-90.4833,83.7,11111222 
WAVCIS,ioos:station:WAVCIS:CSI06:1,2009-05-05T13:00:00Z,28.8667,-90.4833,83.8,11111222 
WAVCIS,ioos:station:WAVCIS:CSI06:1,2009-05-05T14:00:00Z,28.8667,-90.4833,81.8,11111222 
WAVCIS,ioos:station:WAVCIS:CSI06:1,2009-05-05T15:00:00Z,28.8667,-90.4833,80.8,11111222 
WAVCIS,ioos:station:WAVCIS:CSI06:1,2009-05-05T16:00:00Z,28.8667,-90.4833,79.7,11111222 
WAVCIS,ioos:station:WAVCIS:CSI06:1,2009-05-05T17:00:00Z,28.8667,-90.4833,79.5,11111222 
WAVCIS,ioos:station:WAVCIS:CSI06:1,2009-05-05T18:00:00Z,28.8667,-90.4833,78.8,11111222 
WAVCIS,ioos:station:WAVCIS:CSI06:1,2009-05-05T19:00:00Z,28.8667,-90.4833,77.1,11111222 
WAVCIS,ioos:station:WAVCIS:CSI06:1,2009-05-05T20:00:00Z,28.8667,-90.4833,76.7,11111222 
WAVCIS,ioos:station:WAVCIS:CSI06:1,2009-05-05T21:00:00Z,28.8667,-90.4833,77.1,11111222 
WAVCIS,ioos:station:WAVCIS:CSI06:1,2009-05-05T22:00:00Z,28.8667,-90.4833,76.8,11111222 
WAVCIS,ioos:station:WAVCIS:CSI06:1,2009-05-05T23:00:00Z,28.8667,-90.4833,76.0,11111222 
WAVCIS,ioos:station:WAVCIS:CSI06:1,2009-05-06T00:00:00Z,28.8667,-90.4833,77.9,11111222 
WAVCIS,ioos:station:WAVCIS:CSI06:1,2009-05-06T01:00:00Z,28.8667,-90.4833,79.3,11111222 
WAVCIS,ioos:station:WAVCIS:CSI06:1,2009-05-06T02:00:00Z,28.8667,-90.4833,78.7,11111222 
WAVCIS,ioos:station:WAVCIS:CSI06:1,2009-05-06T03:00:00Z,28.8667,-90.4833,80.9,11111222 
WAVCIS,ioos:station:WAVCIS:CSI06:1,2009-05-06T04:00:00Z,28.8667,-90.4833,81.3,11111222 
WAVCIS,ioos:station:WAVCIS:CSI06:1,2009-05-06T05:00:00Z,28.8667,-90.4833,80.8,11111222 
WAVCIS,ioos:station:WAVCIS:CSI06:1,2009-05-06T06:00:00Z,28.8667,-90.4833,79.0,11111222 
WAVCIS,ioos:station:WAVCIS:CSI06:1,2009-05-06T07:00:00Z,28.8667,-90.4833,80.1,11111222 
WAVCIS,ioos:station:WAVCIS:CSI06:1,2009-05-06T08:00:00Z,28.8667,-90.4833,81.7,11111222 
WAVCIS,ioos:station:WAVCIS:CSI06:1,2009-05-06T09:00:00Z,28.8667,-90.4833,82.2,11111222 
WAVCIS,ioos:station:WAVCIS:CSI06:1,2009-05-06T10:00:00Z,28.8667,-90.4833,81.9,11111222 
WAVCIS,ioos:station:WAVCIS:CSI06:1,2009-05-06T11:00:00Z,28.8667,-90.4833,82.1,11111222 
WAVCIS,ioos:station:WAVCIS:CSI06:1,2009-05-06T12:00:00Z,28.8667,-90.4833,80.8,11111222 
WAVCIS,ioos:station:WAVCIS:CSI06:1,2009-05-06T13:00:00Z,28.8667,-90.4833,79.0,11111222 
WAVCIS,ioos:station:WAVCIS:CSI06:1,2009-05-06T14:00:00Z,28.8667,-90.4833,78.4,11111222 
WAVCIS,ioos:station:WAVCIS:CSI06:1,2009-05-06T15:00:00Z,28.8667,-90.4833,80.2,11111222 
WAVCIS,ioos:station:WAVCIS:CSI06:1,2009-05-06T16:00:00Z,28.8667,-90.4833,78.9,11111222 
WAVCIS,ioos:station:WAVCIS:CSI06:1,2009-05-06T17:00:00Z,28.8667,-90.4833,78.8,11111222 
WAVCIS,ioos:station:WAVCIS:CSI06:1,2009-05-06T18:00:00Z,28.8667,-90.4833,78.3,11111222 
WAVCIS,ioos:station:WAVCIS:CSI06:1,2009-05-06T19:00:00Z,28.8667,-90.4833,78.7,11111222 
WAVCIS,ioos:station:WAVCIS:CSI06:1,2009-05-06T20:00:00Z,28.8667,-90.4833,79.4,11111222 
WAVCIS,ioos:station:WAVCIS:CSI06:1,2009-05-06T21:00:00Z,28.8667,-90.4833,79.5,11111222 
WAVCIS,ioos:station:WAVCIS:CSI06:1,2009-05-06T22:00:00Z,28.8667,-90.4833,79.2,11111222 
WAVCIS,ioos:station:WAVCIS:CSI06:1,2009-05-06T23:00:00Z,28.8667,-90.4833,80.1,11111222 
WAVCIS,ioos:station:WAVCIS:CSI06:1,2009-05-07T00:00:00Z,28.8667,-90.4833,81.5,11111222 
WAVCIS,ioos:station:WAVCIS:CSI06:1,2009-05-07T01:00:00Z,28.8667,-90.4833,82.0,11111222 
WAVCIS,ioos:station:WAVCIS:CSI06:1,2009-05-07T02:00:00Z,28.8667,-90.4833,81.2,11111222 
WAVCIS,ioos:station:WAVCIS:CSI06:1,2009-05-07T03:00:00Z,28.8667,-90.4833,81.4,11111222 
WAVCIS,ioos:station:WAVCIS:CSI06:1,2009-05-07T04:00:00Z,28.8667,-90.4833,81.8,11111222 
WAVCIS,ioos:station:WAVCIS:CSI06:1,2009-05-07T05:00:00Z,28.8667,-90.4833,80.6,11111222 
WAVCIS,ioos:station:WAVCIS:CSI06:1,2009-05-07T06:00:00Z,28.8667,-90.4833,82.2,11111222 
WAVCIS,ioos:station:WAVCIS:CSI06:1,2009-05-07T07:00:00Z,28.8667,-90.4833,82.9,11111222 
WAVCIS,ioos:station:WAVCIS:CSI06:1,2009-05-07T08:00:00Z,28.8667,-90.4833,81.9,11111222 
WAVCIS,ioos:station:WAVCIS:CSI06:1,2009-05-07T09:00:00Z,28.8667,-90.4833,81.8,11111222 
WAVCIS,ioos:station:WAVCIS:CSI06:1,2009-05-07T10:00:00Z,28.8667,-90.4833,82.4,11111222 
WAVCIS,ioos:station:WAVCIS:CSI06:1,2009-05-07T11:00:00Z,28.8667,-90.4833,82.1,11111222 
WAVCIS,ioos:station:WAVCIS:CSI06:1,2009-05-07T12:00:00Z,28.8667,-90.4833,80.9,11111222 
WAVCIS,ioos:station:WAVCIS:CSI06:1,2009-05-07T13:00:00Z,28.8667,-90.4833,77.7,11111222 
WAVCIS,ioos:station:WAVCIS:CSI06:1,2009-05-07T14:00:00Z,28.8667,-90.4833,77.7,11111222 
WAVCIS,ioos:station:WAVCIS:CSI06:1,2009-05-07T15:00:00Z,28.8667,-90.4833,76.4,11111222 
WAVCIS,ioos:station:WAVCIS:CSI06:1,2009-05-07T16:00:00Z,28.8667,-90.4833,77.9,11111222 
WAVCIS,ioos:station:WAVCIS:CSI06:1,2009-05-07T17:00:00Z,28.8667,-90.4833,77.7,11111222 
WAVCIS,ioos:station:WAVCIS:CSI06:1,2009-05-07T18:00:00Z,28.8667,-90.4833,77.2,11111222 
WAVCIS,ioos:station:WAVCIS:CSI06:1,2009-05-07T19:00:00Z,28.8667,-90.4833,77.2,11111222 
WAVCIS,ioos:station:WAVCIS:CSI06:1,2009-05-07T20:00:00Z,28.8667,-90.4833,77.3,11111222 
WAVCIS,ioos:station:WAVCIS:CSI06:1,2009-05-07T21:00:00Z,28.8667,-90.4833,77.4,11111222 
WAVCIS,ioos:station:WAVCIS:CSI06:1,2009-05-07T22:00:00Z,28.8667,-90.4833,76.0,11111222 
WAVCIS,ioos:station:WAVCIS:CSI06:1,2009-05-07T23:00:00Z,28.8667,-90.4833,76.4,11111222 
WAVCIS,ioos:station:WAVCIS:CSI06:1,2009-05-08T00:00:00Z,28.8667,-90.4833,77.9,11111222 
WAVCIS,ioos:station:WAVCIS:CSI06:1,2009-05-08T01:00:00Z,28.8667,-90.4833,79.0,11111222 
WAVCIS,ioos:station:WAVCIS:CSI06:1,2009-05-08T02:00:00Z,28.8667,-90.4833,79.2,11111222 
WAVCIS,ioos:station:WAVCIS:CSI06:1,2009-05-08T03:00:00Z,28.8667,-90.4833,79.5,11111222 
WAVCIS,ioos:station:WAVCIS:CSI06:1,2009-05-08T04:00:00Z,28.8667,-90.4833,79.9,11111222 
WAVCIS,ioos:station:WAVCIS:CSI06:1,2009-05-08T05:00:00Z,28.8667,-90.4833,80.4,11111222 
WAVCIS,ioos:station:WAVCIS:CSI06:1,2009-05-08T06:00:00Z,28.8667,-90.4833,79.2,11111222 
WAVCIS,ioos:station:WAVCIS:CSI06:1,2009-05-08T07:00:00Z,28.8667,-90.4833,78.7,11111222 
WAVCIS,ioos:station:WAVCIS:CSI06:1,2009-05-08T08:00:00Z,28.8667,-90.4833,78.9,11111222 
WAVCIS,ioos:station:WAVCIS:CSI06:1,2009-05-08T09:00:00Z,28.8667,-90.4833,77.1,11111222 
WAVCIS,ioos:station:WAVCIS:CSI06:1,2009-05-08T10:00:00Z,28.8667,-90.4833,78.1,11111222 
WAVCIS,ioos:station:WAVCIS:CSI06:1,2009-05-08T11:00:00Z,28.8667,-90.4833,77.7,11111222 
WAVCIS,ioos:station:WAVCIS:CSI06:1,2009-05-08T12:00:00Z,28.8667,-90.4833,76.2,11111222 
WAVCIS,ioos:station:WAVCIS:CSI06:1,2009-05-08T13:00:00Z,28.8667,-90.4833,75.7,11111222 
WAVCIS,ioos:station:WAVCIS:CSI06:1,2009-05-08T14:00:00Z,28.8667,-90.4833,76.8,11111222 
WAVCIS,ioos:station:WAVCIS:CSI06:1,2009-05-08T15:00:00Z,28.8667,-90.4833,74.9,11111222 
WAVCIS,ioos:station:WAVCIS:CSI06:1,2009-05-08T16:00:00Z,28.8667,-90.4833,73.9,11111222 
WAVCIS,ioos:station:WAVCIS:CSI06:1,2009-05-08T17:00:00Z,28.8667,-90.4833,73.9,11111222 
WAVCIS,ioos:station:WAVCIS:CSI06:1,2009-05-08T18:00:00Z,28.8667,-90.4833,73.4,11111222 
WAVCIS,ioos:station:WAVCIS:CSI06:1,2009-05-08T19:00:00Z,28.8667,-90.4833,74.0,11111222 
WAVCIS,ioos:station:WAVCIS:CSI06:1,2009-05-08T20:00:00Z,28.8667,-90.4833,74.6,11111222 
WAVCIS,ioos:station:WAVCIS:CSI06:1,2009-05-08T21:00:00Z,28.8667,-90.4833,75.3,11111222 
WAVCIS,ioos:station:WAVCIS:CSI06:1,2009-05-08T22:00:00Z,28.8667,-90.4833,75.3,11111222 
WAVCIS,ioos:station:WAVCIS:CSI06:1,2009-05-08T23:00:00Z,28.8667,-90.4833,77.0,11111222 
WAVCIS,ioos:station:WAVCIS:CSI06:1,2009-05-09T00:00:00Z,28.8667,-90.4833,76.6,11111222 
WAVCIS,ioos:station:WAVCIS:CSI06:1,2009-05-09T01:00:00Z,28.8667,-90.4833,76.9,11111222 
WAVCIS,ioos:station:WAVCIS:CSI06:1,2009-05-09T02:00:00Z,28.8667,-90.4833,77.1,11111222 
WAVCIS,ioos:station:WAVCIS:CSI06:1,2009-05-09T03:00:00Z,28.8667,-90.4833,76.3,11111222 
WAVCIS,ioos:station:WAVCIS:CSI06:1,2009-05-09T04:00:00Z,28.8667,-90.4833,76.0,11111222 
WAVCIS,ioos:station:WAVCIS:CSI06:1,2009-05-09T05:00:00Z,28.8667,-90.4833,77.1,11111222 
WAVCIS,ioos:station:WAVCIS:CSI06:1,2009-05-09T06:00:00Z,28.8667,-90.4833,77.6,11111222 
WAVCIS,ioos:station:WAVCIS:CSI06:1,2009-05-09T07:00:00Z,28.8667,-90.4833,77.2,11111222 
WAVCIS,ioos:station:WAVCIS:CSI06:1,2009-05-09T08:00:00Z,28.8667,-90.4833,76.6,11111222 
WAVCIS,ioos:station:WAVCIS:CSI06:1,2009-05-09T09:00:00Z,28.8667,-90.4833,76.1,11111222 
WAVCIS,ioos:station:WAVCIS:CSI06:1,2009-05-09T10:00:00Z,28.8667,-90.4833,74.1,11111222 
WAVCIS,ioos:station:WAVCIS:CSI06:1,2009-05-09T11:00:00Z,28.8667,-90.4833,72.9,11111222 
WAVCIS,ioos:station:WAVCIS:CSI06:1,2009-05-09T12:00:00Z,28.8667,-90.4833,72.7,11111222 
WAVCIS,ioos:station:WAVCIS:CSI06:1,2009-05-09T13:00:00Z,28.8667,-90.4833,73.8,11111222 
WAVCIS,ioos:station:WAVCIS:CSI06:1,2009-05-09T14:00:00Z,28.8667,-90.4833,73.7,11111222 
WAVCIS,ioos:station:WAVCIS:CSI06:1,2009-05-09T15:00:00Z,28.8667,-90.4833,73.2,11111222 
WAVCIS,ioos:station:WAVCIS:CSI06:1,2009-05-09T16:00:00Z,28.8667,-90.4833,73.5,11111222 
WAVCIS,ioos:station:WAVCIS:CSI06:1,2009-05-09T17:00:00Z,28.8667,-90.4833,73.4,11111222 
WAVCIS,ioos:station:WAVCIS:CSI06:1,2009-05-09T18:00:00Z,28.8667,-90.4833,71.7,11111222 
WAVCIS,ioos:station:WAVCIS:CSI06:1,2009-05-09T19:00:00Z,28.8667,-90.4833,73.1,11111222 
WAVCIS,ioos:station:WAVCIS:CSI06:1,2009-05-09T20:00:00Z,28.8667,-90.4833,74.6,11111222 
WAVCIS,ioos:station:WAVCIS:CSI06:1,2009-05-09T21:00:00Z,28.8667,-90.4833,75.6,11111222 
WAVCIS,ioos:station:WAVCIS:CSI06:1,2009-05-09T22:00:00Z,28.8667,-90.4833,77.2,11111222 
WAVCIS,ioos:station:WAVCIS:CSI06:1,2009-05-09T23:00:00Z,28.8667,-90.4833,77.7,11111222 
WAVCIS,ioos:station:WAVCIS:CSI06:1,2009-05-10T00:00:00Z,28.8667,-90.4833,77.4,11111222 
WAVCIS,ioos:station:WAVCIS:CSI06:1,2009-05-10T01:00:00Z,28.8667,-90.4833,77.5,11111222 
WAVCIS,ioos:station:WAVCIS:CSI06:1,2009-05-10T02:00:00Z,28.8667,-90.4833,77.1,11111222 
WAVCIS,ioos:station:WAVCIS:CSI06:1,2009-05-10T03:00:00Z,28.8667,-90.4833,78.6,11111222 
WAVCIS,ioos:station:WAVCIS:CSI06:1,2009-05-10T04:00:00Z,28.8667,-90.4833,80.0,11111222 
WAVCIS,ioos:station:WAVCIS:CSI06:1,2009-05-10T05:00:00Z,28.8667,-90.4833,79.2,11111222 
WAVCIS,ioos:station:WAVCIS:CSI06:1,2009-05-10T06:00:00Z,28.8667,-90.4833,80.3,11111222 
WAVCIS,ioos:station:WAVCIS:CSI06:1,2009-05-10T07:00:00Z,28.8667,-90.4833,82.0,11111222 
WAVCIS,ioos:station:WAVCIS:CSI06:1,2009-05-10T08:00:00Z,28.8667,-90.4833,81.9,11111222 
WAVCIS,ioos:station:WAVCIS:CSI06:1,2009-05-10T09:00:00Z,28.8667,-90.4833,82.2,11111222 
WAVCIS,ioos:station:WAVCIS:CSI06:1,2009-05-10T10:00:00Z,28.8667,-90.4833,83.0,11111222 
WAVCIS,ioos:station:WAVCIS:CSI06:1,2009-05-10T11:00:00Z,28.8667,-90.4833,82.0,11111222 
WAVCIS,ioos:station:WAVCIS:CSI06:1,2009-05-10T12:00:00Z,28.8667,-90.4833,81.3,11111222 
WAVCIS,ioos:station:WAVCIS:CSI06:1,2009-05-10T13:00:00Z,28.8667,-90.4833,80.9,11111222 
WAVCIS,ioos:station:WAVCIS:CSI06:1,2009-05-10T14:00:00Z,28.8667,-90.4833,79.7,11111222 
WAVCIS,ioos:station:WAVCIS:CSI06:1,2009-05-10T15:00:00Z,28.8667,-90.4833,79.4,11111222 
WAVCIS,ioos:station:WAVCIS:CSI06:1,2009-05-10T16:00:00Z,28.8667,-90.4833,77.2,11111222 
WAVCIS,ioos:station:WAVCIS:CSI06:1,2009-05-10T17:00:00Z,28.8667,-90.4833,77.0,11111222 
WAVCIS,ioos:station:WAVCIS:CSI06:1,2009-05-10T18:00:00Z,28.8667,-90.4833,75.3,11111222 
WAVCIS,ioos:station:WAVCIS:CSI06:1,2009-05-10T19:00:00Z,28.8667,-90.4833,75.0,11111222 
WAVCIS,ioos:station:WAVCIS:CSI06:1,2009-05-10T20:00:00Z,28.8667,-90.4833,74.2,11111222 
WAVCIS,ioos:station:WAVCIS:CSI06:1,2009-05-10T21:00:00Z,28.8667,-90.4833,74.7,11111222 
WAVCIS,ioos:station:WAVCIS:CSI06:1,2009-05-10T22:00:00Z,28.8667,-90.4833,75.3,11111222 
WAVCIS,ioos:station:WAVCIS:CSI06:1,2009-05-10T23:00:00Z,28.8667,-90.4833,74.2,11111222 
WAVCIS,ioos:station:WAVCIS:CSI06:1,2009-05-11T00:00:00Z,28.8667,-90.4833,74.0,11111222 
WAVCIS,ioos:station:WAVCIS:CSI06:1,2009-05-11T01:00:00Z,28.8667,-90.4833,75.7,11111222 
WAVCIS,ioos:station:WAVCIS:CSI06:1,2009-05-11T02:00:00Z,28.8667,-90.4833,76.7,11111222 
WAVCIS,ioos:station:WAVCIS:CSI06:1,2009-05-11T03:00:00Z,28.8667,-90.4833,78.1,11111222 
WAVCIS,ioos:station:WAVCIS:CSI06:1,2009-05-11T04:00:00Z,28.8667,-90.4833,77.0,11111222 
WAVCIS,ioos:station:WAVCIS:CSI06:1,2009-05-11T05:00:00Z,28.8667,-90.4833,76.8,11111222 
WAVCIS,ioos:station:WAVCIS:CSI06:1,2009-05-11T06:00:00Z,28.8667,-90.4833,77.4,11111222 
WAVCIS,ioos:station:WAVCIS:CSI06:1,2009-05-11T07:00:00Z,28.8667,-90.4833,78.4,11111222 
WAVCIS,ioos:station:WAVCIS:CSI06:1,2009-05-11T08:00:00Z,28.8667,-90.4833,79.5,11111222 
WAVCIS,ioos:station:WAVCIS:CSI06:1,2009-05-11T09:00:00Z,28.8667,-90.4833,79.4,11111222 
WAVCIS,ioos:station:WAVCIS:CSI06:1,2009-05-11T10:00:00Z,28.8667,-90.4833,79.7,11111222 
WAVCIS,ioos:station:WAVCIS:CSI06:1,2009-05-11T11:00:00Z,28.8667,-90.4833,80.5,11111222 
WAVCIS,ioos:station:WAVCIS:CSI06:1,2009-05-11T12:00:00Z,28.8667,-90.4833,80.3,11111222 
WAVCIS,ioos:station:WAVCIS:CSI06:1,2009-05-11T13:00:00Z,28.8667,-90.4833,78.3,11111222 
WAVCIS,ioos:station:WAVCIS:CSI06:1,2009-05-11T14:00:00Z,28.8667,-90.4833,77.7,11111222 
WAVCIS,ioos:station:WAVCIS:CSI06:1,2009-05-11T15:00:00Z,28.8667,-90.4833,76.5,11111222 
WAVCIS,ioos:station:WAVCIS:CSI06:1,2009-05-11T16:00:00Z,28.8667,-90.4833,76.6,11111222 
WAVCIS,ioos:station:WAVCIS:CSI06:1,2009-05-11T17:00:00Z,28.8667,-90.4833,74.1,11111222 
WAVCIS,ioos:station:WAVCIS:CSI06:1,2009-05-11T18:00:00Z,28.8667,-90.4833,73.0,11111222 
WAVCIS,ioos:station:WAVCIS:CSI06:1,2009-05-11T19:00:00Z,28.8667,-90.4833,71.0,11111222 
WAVCIS,ioos:station:WAVCIS:CSI06:1,2009-05-11T20:00:00Z,28.8667,-90.4833,69.0,11111222 
WAVCIS,ioos:station:WAVCIS:CSI06:1,2009-05-11T21:00:00Z,28.8667,-90.4833,68.7,11111222 
WAVCIS,ioos:station:WAVCIS:CSI06:1,2009-05-11T22:00:00Z,28.8667,-90.4833,67.7,11111222 
WAVCIS,ioos:station:WAVCIS:CSI06:1,2009-05-11T23:00:00Z,28.8667,-90.4833,68.3,11111222 
WAVCIS,ioos:station:WAVCIS:CSI06:1,2009-05-12T00:00:00Z,28.8667,-90.4833,70.2,11111222 
WAVCIS,ioos:station:WAVCIS:CSI06:1,2009-05-12T01:00:00Z,28.8667,-90.4833,71.8,11111222 
WAVCIS,ioos:station:WAVCIS:CSI06:1,2009-05-12T02:00:00Z,28.8667,-90.4833,71.8,11111222 
WAVCIS,ioos:station:WAVCIS:CSI06:1,2009-05-12T03:00:00Z,28.8667,-90.4833,72.7,11111222 
WAVCIS,ioos:station:WAVCIS:CSI06:1,2009-05-12T04:00:00Z,28.8667,-90.4833,72.6,11111222 
WAVCIS,ioos:station:WAVCIS:CSI06:1,2009-05-12T05:00:00Z,28.8667,-90.4833,74.1,11111222 
WAVCIS,ioos:station:WAVCIS:CSI06:1,2009-05-12T06:00:00Z,28.8667,-90.4833,75.9,11111222 
WAVCIS,ioos:station:WAVCIS:CSI06:1,2009-05-12T07:00:00Z,28.8667,-90.4833,75.3,11111222 